Location: Prescott
(34.5400°N, 112.4680°W)
Time: 12:47:32
(UTC-07:00)

Envisat - Visible Passes

Search period start: 21 October 2019 00:00
Search period end: 31 October 2019 00:00
Orbit: 764 x 766 km, 98.1° (Epoch: 21 October)

Date Brightness Start Highest point End Pass type
(mag) Time Alt. Az. Time Alt. Az. Time Alt. Az.
21 Oct 3.3 18:12:36 10° SE 18:17:26 47° ENE 18:22:17 10° N visible
21 Oct 5.8 19:53:30 10° SW 19:56:38 16° W 19:59:48 10° NW visible
22 Oct 4.4 19:14:57 10° SSW 19:19:39 39° W 19:24:24 10° NNW visible
23 Oct 3.0 18:37:47 10° SSE 18:42:51 86° ENE 18:47:57 10° NNW visible
24 Oct 5.5 19:41:29 10° SW 19:45:17 21° W 19:49:08 10° NW visible
25 Oct 6.2 06:15:06 10° NE 06:18:17 17° E 06:21:27 10° SE visible
25 Oct 3.9 19:03:27 10° S 19:08:21 51° W 19:13:19 10° NNW visible
26 Oct 2.9 18:26:35 10° SSE 18:31:37 67° ENE 18:36:39 10° N visible
26 Oct 6.2 20:09:37 10° WSW 20:11:01 11° W 20:12:26 10° WNW visible
27 Oct 5.1 19:29:40 10° SSW 19:33:57 27° W 19:38:15 10° NW visible
28 Oct 6.4 06:04:48 10° ENE 06:06:55 12° E 06:09:02 10° ESE visible
28 Oct 3.4 18:52:03 10° S 18:57:05 67° W 19:02:08 10° NNW visible
29 Oct 3.1 18:15:29 10° SSE 18:20:23 51° ENE 18:25:18 10° N visible
29 Oct 5.9 19:56:51 10° SW 19:59:39 15° W 20:02:28 10° WNW visible
30 Oct 4.6 19:18:01 10° SSW 19:22:38 35° W 19:27:17 10° NNW visible
